SUR4070 SPJC-SPJL

Flight info

Callsign SUR4070
Flight time 1h 19m
Altitude 29000
Route PAKOL5 KULIS UM415 OPKUL
Aircraft E175/L-S/1200

Departure

Time 2026-04-20 18:06
Airport Jorge Chávez International Airport (SPJC)

Arrival

Time 2026-04-20 19:25
Airport Inca Manco Capac International Airport (SPJL)
Time Latitude Longitude Altitude Speed Heading
2026-04-20 18:01 -12.02100 -77.11097 132 ft 0 kts
2026-04-20 18:02 -12.02099 -77.11097 132 ft 0 kts
2026-04-20 18:02 -12.02069 -77.11114 132 ft 7 kts 314°
2026-04-20 18:02 -12.02034 -77.11153 132 ft 7 kts 310°
2026-04-20 18:02 -12.01995 -77.11192 132 ft 8 kts 314°
2026-04-20 18:03 -12.01955 -77.11241 132 ft 8 kts 305°
2026-04-20 18:03 -12.01919 -77.11294 132 ft 9 kts 304°
2026-04-20 18:03 -12.01883 -77.11350 132 ft 9 kts 300°
2026-04-20 18:03 -12.01848 -77.11409 132 ft 9 kts 302°
2026-04-20 18:04 -12.01823 -77.11447 132 ft 0 kts 307°
2026-04-20 18:04 -12.01822 -77.11448 132 ft 1 kts 306°
2026-04-20 18:04 -12.01783 -77.11509 132 ft 12 kts 306°
2026-04-20 18:04 -12.01723 -77.11578 132 ft 12 kts 315°
2026-04-20 18:05 -12.01586 -77.11697 132 ft 13 kts 326°
2026-04-20 18:05 -12.01573 -77.11724 132 ft 4 kts 181°
2026-04-20 18:05 -12.01753 -77.11640 132 ft 67 kts 157°
2026-04-20 18:06 -12.02405 -77.11322 132 ft 137 kts 154°
2026-04-20 18:06 -12.03412 -77.10806 369 ft 176 kts 152°
2026-04-20 18:06 -12.04641 -77.10156 528 ft 224 kts 149°
2026-04-20 18:06 -12.06051 -77.09225 915 ft 244 kts 150°
2026-04-20 18:07 -12.07474 -77.08436 1172 ft 226 kts 153°
2026-04-20 18:07 -12.08914 -77.07727 1472 ft 228 kts 155°
2026-04-20 18:07 -12.10368 -77.07059 1781 ft 232 kts 156°
2026-04-20 18:07 -12.11871 -77.06394 2090 ft 237 kts 156°
2026-04-20 18:08 -12.13381 -77.05740 2390 ft 237 kts 156°
2026-04-20 18:08 -12.14919 -77.05081 2684 ft 239 kts 156°
2026-04-20 18:08 -12.16466 -77.04378 2979 ft 243 kts 153°
2026-04-20 18:08 -12.17984 -77.03625 3285 ft 245 kts 153°
2026-04-20 18:09 -12.19529 -77.02862 3602 ft 246 kts 153°
2026-04-20 18:09 -12.21082 -77.02093 3906 ft 246 kts 153°
2026-04-20 18:09 -12.22644 -77.01321 4206 ft 249 kts 153°
2026-04-20 18:09 -12.24108 -77.00366 4524 ft 251 kts 128°
2026-04-20 18:10 -12.24994 -76.98837 4894 ft 256 kts 116°
2026-04-20 18:10 -12.25808 -76.97188 5153 ft 262 kts 115°
2026-04-20 18:10 -12.26633 -76.95498 5463 ft 266 kts 115°
2026-04-20 18:10 -12.27448 -76.93819 5759 ft 267 kts 115°
2026-04-20 18:11 -12.28283 -76.92093 6019 ft 269 kts 115°
2026-04-20 18:11 -12.29112 -76.90378 6329 ft 270 kts 115°
2026-04-20 18:11 -12.29942 -76.88657 6622 ft 272 kts 115°
2026-04-20 18:11 -12.30774 -76.86933 6975 ft 272 kts 115°
2026-04-20 18:12 -12.31624 -76.85170 7329 ft 274 kts 115°
2026-04-20 18:12 -12.32459 -76.83440 7579 ft 275 kts 115°
2026-04-20 18:12 -12.33308 -76.81679 7845 ft 276 kts 115°
2026-04-20 18:12 -12.34159 -76.79913 8132 ft 277 kts 115°
2026-04-20 18:13 -12.35017 -76.78133 8396 ft 278 kts 115°
2026-04-20 18:13 -12.35869 -76.76366 8660 ft 279 kts 115°
2026-04-20 18:13 -12.36734 -76.74570 8956 ft 280 kts 115°
2026-04-20 18:13 -12.37593 -76.72786 9304 ft 282 kts 115°
2026-04-20 18:14 -12.38468 -76.70971 9585 ft 283 kts 115°
2026-04-20 18:14 -12.39335 -76.69170 9919 ft 285 kts 115°
2026-04-20 18:14 -12.40225 -76.67320 10111 ft 289 kts 115°
2026-04-20 18:14 -12.41146 -76.65406 10356 ft 311 kts 115°
2026-04-20 18:15 -12.42131 -76.63361 10783 ft 331 kts 115°
2026-04-20 18:15 -12.43184 -76.61189 11165 ft 351 kts 115°
2026-04-20 18:15 -12.44309 -76.58871 11534 ft 366 kts 115°
2026-04-20 18:15 -12.45438 -76.56543 11803 ft 369 kts 115°
2026-04-20 18:16 -12.46575 -76.54197 12043 ft 371 kts 115°
2026-04-20 18:16 -12.47735 -76.51803 12358 ft 373 kts 115°
2026-04-20 18:16 -12.48876 -76.49449 12715 ft 375 kts 115°
2026-04-20 18:16 -12.50035 -76.47056 12986 ft 376 kts 115°
2026-04-20 18:17 -12.51201 -76.44647 13298 ft 377 kts 115°
2026-04-20 18:17 -12.52375 -76.42221 13567 ft 380 kts 115°
2026-04-20 18:17 -12.53549 -76.39794 13896 ft 381 kts 115°
2026-04-20 18:17 -12.54726 -76.37361 14232 ft 382 kts 115°
2026-04-20 18:18 -12.55898 -76.34937 14548 ft 383 kts 115°
2026-04-20 18:18 -12.57094 -76.32465 14891 ft 383 kts 115°
2026-04-20 18:18 -12.58285 -76.29999 15217 ft 385 kts 115°
2026-04-20 18:18 -12.59472 -76.27542 15537 ft 387 kts 115°
2026-04-20 18:19 -12.60658 -76.25087 15863 ft 389 kts 115°
2026-04-20 18:19 -12.61863 -76.22592 16177 ft 391 kts 115°
2026-04-20 18:19 -12.63065 -76.20101 16480 ft 392 kts 115°
2026-04-20 18:19 -12.64282 -76.17581 16786 ft 394 kts 115°
2026-04-20 18:20 -12.65504 -76.15048 17066 ft 395 kts 115°
2026-04-20 18:20 -12.66731 -76.12505 17387 ft 397 kts 115°
2026-04-20 18:20 -12.67959 -76.09957 17692 ft 399 kts 115°
2026-04-20 18:20 -12.69188 -76.07408 18008 ft 401 kts 115°
2026-04-20 18:21 -12.70416 -76.04858 18275 ft 402 kts 115°
2026-04-20 18:21 -12.71661 -76.02274 18571 ft 405 kts 115°
2026-04-20 18:21 -12.72909 -75.99683 18858 ft 406 kts 115°
2026-04-20 18:21 -12.74161 -75.97089 19143 ft 408 kts 116°
2026-04-20 18:22 -12.75754 -75.94637 19413 ft 410 kts 126°
2026-04-20 18:22 -12.77450 -75.92313 19693 ft 411 kts 126°
2026-04-20 18:22 -12.79158 -75.89967 20001 ft 413 kts 126°
2026-04-20 18:22 -12.80894 -75.87578 20292 ft 416 kts 125°
2026-04-20 18:23 -12.82617 -75.85207 20583 ft 418 kts 125°
2026-04-20 18:23 -12.84372 -75.82791 20863 ft 420 kts 125°
2026-04-20 18:23 -12.86121 -75.80381 21157 ft 423 kts 125°
2026-04-20 18:23 -12.87876 -75.77964 21444 ft 425 kts 125°
2026-04-20 18:24 -12.89641 -75.75532 21722 ft 427 kts 125°
2026-04-20 18:24 -12.91411 -75.73093 21988 ft 429 kts 125°
2026-04-20 18:24 -12.93202 -75.70624 22256 ft 431 kts 125°
2026-04-20 18:24 -12.94998 -75.68147 22523 ft 431 kts 125°
2026-04-20 18:25 -12.96777 -75.65692 22789 ft 433 kts 125°
2026-04-20 18:25 -12.98583 -75.63200 23064 ft 435 kts 125°
2026-04-20 18:25 -13.00411 -75.60677 23342 ft 437 kts 125°
2026-04-20 18:25 -13.02214 -75.58189 23615 ft 440 kts 125°
2026-04-20 18:26 -13.04039 -75.55668 23915 ft 442 kts 125°
2026-04-20 18:26 -13.05870 -75.53138 24220 ft 444 kts 125°
2026-04-20 18:26 -13.07728 -75.50570 24522 ft 447 kts 125°
2026-04-20 18:26 -13.09592 -75.47994 24826 ft 448 kts 125°
2026-04-20 18:27 -13.11444 -75.45433 25124 ft 451 kts 125°
2026-04-20 18:27 -13.13312 -75.42850 25423 ft 453 kts 125°
2026-04-20 18:27 -13.15210 -75.40224 25726 ft 456 kts 125°
2026-04-20 18:27 -13.17092 -75.37620 26023 ft 457 kts 125°
2026-04-20 18:28 -13.18989 -75.34995 26321 ft 459 kts 125°
2026-04-20 18:28 -13.20899 -75.32350 26612 ft 462 kts 125°
2026-04-20 18:28 -13.22822 -75.29688 26913 ft 463 kts 125°
2026-04-20 18:28 -13.24745 -75.27023 27216 ft 466 kts 125°
2026-04-20 18:29 -13.26660 -75.24370 27511 ft 468 kts 125°
2026-04-20 18:29 -13.28601 -75.21679 27815 ft 470 kts 125°
2026-04-20 18:29 -13.30563 -75.18958 28122 ft 471 kts 125°
2026-04-20 18:29 -13.32508 -75.16259 28425 ft 473 kts 125°
2026-04-20 18:30 -13.34464 -75.13545 28734 ft 475 kts 125°
2026-04-20 18:30 -13.36451 -75.10787 29057 ft 476 kts 125°
2026-04-20 18:30 -13.38418 -75.08057 29375 ft 477 kts 125°
2026-04-20 18:30 -13.40374 -75.05340 29693 ft 478 kts 126°
2026-04-20 18:31 -13.42350 -75.02594 29889 ft 482 kts 125°
2026-04-20 18:31 -13.44371 -74.99785 29908 ft 487 kts 125°
2026-04-20 18:31 -13.48130 -74.94049 29911 ft 486 kts 115°
2026-04-20 18:32 -13.50898 -74.87714 29860 ft 484 kts 112°
2026-04-20 18:32 -13.53600 -74.81401 29837 ft 484 kts 112°
2026-04-20 18:33 -13.56324 -74.75028 29833 ft 485 kts 112°
2026-04-20 18:33 -13.59025 -74.68704 29816 ft 484 kts 112°
2026-04-20 18:34 -13.61714 -74.62403 29813 ft 485 kts 112°
2026-04-20 18:34 -13.64424 -74.56047 29794 ft 485 kts 112°
2026-04-20 18:35 -13.67132 -74.49691 29785 ft 485 kts 112°
2026-04-20 18:35 -13.69821 -74.43376 29772 ft 485 kts 112°
2026-04-20 18:36 -13.72534 -74.36996 29775 ft 486 kts 112°
2026-04-20 18:36 -13.75225 -74.30664 29758 ft 485 kts 112°
2026-04-20 18:37 -13.77920 -74.24320 29764 ft 484 kts 112°
2026-04-20 18:37 -13.80606 -74.17987 29772 ft 485 kts 112°
2026-04-20 18:38 -13.83306 -74.11619 29779 ft 484 kts 112°
2026-04-20 18:38 -13.85995 -74.05271 29784 ft 485 kts 112°
2026-04-20 18:39 -13.88690 -73.98902 29787 ft 485 kts 112°
2026-04-20 18:39 -13.91384 -73.92532 29790 ft 484 kts 112°
2026-04-20 18:40 -13.94066 -73.86184 29789 ft 485 kts 112°
2026-04-20 18:40 -13.96743 -73.79841 29775 ft 483 kts 112°
2026-04-20 18:41 -13.99434 -73.73462 29775 ft 483 kts 112°
2026-04-20 18:41 -14.02090 -73.67159 29768 ft 484 kts 112°
2026-04-20 18:42 -14.04769 -73.60796 29766 ft 483 kts 112°
2026-04-20 18:42 -14.07445 -73.54437 29770 ft 483 kts 112°
2026-04-20 18:43 -14.10118 -73.48077 29774 ft 485 kts 112°
2026-04-20 18:43 -14.12781 -73.41737 29770 ft 482 kts 112°
2026-04-20 18:44 -14.15444 -73.35392 29777 ft 481 kts 112°
2026-04-20 18:44 -14.18089 -73.29082 29777 ft 482 kts 112°
2026-04-20 18:45 -14.20739 -73.22757 29785 ft 483 kts 112°
2026-04-20 18:45 -14.23396 -73.16408 29785 ft 482 kts 112°
2026-04-20 18:46 -14.26055 -73.10051 29779 ft 484 kts 112°
2026-04-20 18:46 -14.28702 -73.03716 29785 ft 483 kts 112°
2026-04-20 18:47 -14.31351 -72.97372 29750 ft 462 kts 112°
2026-04-20 18:47 -14.32575 -72.94436 29747 ft 436 kts 112°
2026-04-20 18:47 -14.33730 -72.91666 29751 ft 411 kts 112°
2026-04-20 18:48 -14.34838 -72.89008 29773 ft 389 kts 111°
2026-04-20 18:48 -14.35893 -72.86473 29815 ft 386 kts 111°
2026-04-20 18:48 -14.38031 -72.81339 29835 ft 394 kts 112°
2026-04-20 18:49 -14.40199 -72.76130 29846 ft 395 kts 112°
2026-04-20 18:49 -14.42370 -72.70909 29863 ft 396 kts 112°
2026-04-20 18:50 -14.44532 -72.65709 29885 ft 397 kts 111°
2026-04-20 18:50 -14.46706 -72.60474 29879 ft 395 kts 112°
2026-04-20 18:51 -14.48873 -72.55253 29906 ft 397 kts 111°
2026-04-20 18:51 -14.51038 -72.50033 29905 ft 396 kts 112°
2026-04-20 18:52 -14.53194 -72.44830 29920 ft 395 kts 111°
2026-04-20 18:52 -14.55371 -72.39572 29923 ft 397 kts 111°
2026-04-20 18:53 -14.57526 -72.34365 29944 ft 395 kts 111°
2026-04-20 18:53 -14.59701 -72.29105 29931 ft 397 kts 111°
2026-04-20 18:54 -14.61858 -72.23885 29937 ft 398 kts 111°
2026-04-20 18:54 -14.64017 -72.18655 29940 ft 397 kts 111°
2026-04-20 18:55 -14.66181 -72.13409 29951 ft 399 kts 111°
2026-04-20 18:55 -14.68358 -72.08130 29961 ft 398 kts 111°
2026-04-20 18:56 -14.70520 -72.02881 29975 ft 397 kts 111°
2026-04-20 18:56 -14.72681 -71.97632 30001 ft 397 kts 111°
2026-04-20 18:57 -14.74838 -71.92388 29988 ft 397 kts 111°
2026-04-20 18:57 -14.76989 -71.87154 29973 ft 398 kts 111°
2026-04-20 18:58 -14.79153 -71.81887 29984 ft 399 kts 111°
2026-04-20 18:58 -14.81329 -71.76584 29989 ft 399 kts 111°
2026-04-20 18:59 -14.83499 -71.71293 29972 ft 400 kts 111°
2026-04-20 18:59 -14.85658 -71.66025 29975 ft 398 kts 111°
2026-04-20 19:00 -14.87815 -71.60758 29971 ft 399 kts 111°
2026-04-20 19:00 -14.89976 -71.55477 29973 ft 400 kts 111°
2026-04-20 19:01 -14.92127 -71.50217 29959 ft 399 kts 111°
2026-04-20 19:01 -14.94292 -71.44916 29942 ft 401 kts 111°
2026-04-20 19:02 -14.96468 -71.39586 29941 ft 402 kts 111°
2026-04-20 19:02 -14.98630 -71.34288 29941 ft 400 kts 111°
2026-04-20 19:03 -15.00790 -71.28989 29896 ft 401 kts 111°
2026-04-20 19:03 -15.02951 -71.23684 29900 ft 400 kts 111°
2026-04-20 19:04 -15.05100 -71.18404 29928 ft 400 kts 111°
2026-04-20 19:04 -15.07267 -71.13075 29912 ft 400 kts 111°
2026-04-20 19:05 -15.09421 -71.07773 29923 ft 402 kts 111°
2026-04-20 19:05 -15.11577 -71.02463 29917 ft 401 kts 111°
2026-04-20 19:06 -15.13740 -70.97129 29940 ft 402 kts 111°
2026-04-20 19:06 -15.15900 -70.91798 29921 ft 401 kts 111°
2026-04-20 19:07 -15.18048 -70.86495 29912 ft 401 kts 111°
2026-04-20 19:07 -15.20207 -70.81160 29919 ft 400 kts 111°
2026-04-20 19:08 -15.23422 -70.73207 29905 ft 401 kts 111°
2026-04-20 19:09 -15.25576 -70.67873 29881 ft 402 kts 111°
2026-04-20 19:09 -15.27728 -70.62537 29859 ft 400 kts 111°
2026-04-20 19:10 -15.29876 -70.57210 29838 ft 402 kts 111°
2026-04-20 19:10 -15.32027 -70.51872 29826 ft 402 kts 111°
2026-04-20 19:11 -15.34177 -70.46530 29837 ft 402 kts 111°
2026-04-20 19:11 -15.36320 -70.41202 29799 ft 402 kts 111°
2026-04-20 19:11 -15.37386 -70.38550 29749 ft 386 kts 111°
2026-04-20 19:12 -15.38390 -70.36050 29549 ft 372 kts 111°
2026-04-20 19:12 -15.39371 -70.33607 28988 ft 368 kts 111°
2026-04-20 19:12 -15.40346 -70.31178 28349 ft 356 kts 111°
2026-04-20 19:12 -15.41275 -70.28863 27835 ft 342 kts 111°
2026-04-20 19:13 -15.42173 -70.26624 27315 ft 331 kts 111°
2026-04-20 19:13 -15.43034 -70.24477 26810 ft 320 kts 111°
2026-04-20 19:13 -15.43884 -70.22357 26297 ft 311 kts 111°
2026-04-20 19:13 -15.44697 -70.20328 25796 ft 303 kts 111°
2026-04-20 19:14 -15.45490 -70.18347 25297 ft 296 kts 111°
2026-04-20 19:14 -15.46276 -70.16384 24794 ft 289 kts 111°
2026-04-20 19:14 -15.47105 -70.14529 24389 ft 286 kts 122°
2026-04-20 19:14 -15.47943 -70.12653 23975 ft 284 kts 105°
2026-04-20 19:15 -15.48548 -70.10710 23540 ft 285 kts 108°
2026-04-20 19:15 -15.49217 -70.08786 23092 ft 287 kts 114°
2026-04-20 19:15 -15.50342 -70.07089 22643 ft 287 kts 137°
2026-04-20 19:15 -15.51967 -70.05891 22216 ft 286 kts 158°
2026-04-20 19:16 -15.53836 -70.05164 21814 ft 286 kts 161°
2026-04-20 19:16 -15.55712 -70.04520 21397 ft 286 kts 161°
2026-04-20 19:16 -15.57600 -70.03827 20970 ft 288 kts 161°
2026-04-20 19:16 -15.59501 -70.03127 20532 ft 288 kts 160°
2026-04-20 19:17 -15.61387 -70.02436 20101 ft 289 kts 161°
2026-04-20 19:17 -15.63295 -70.01743 19666 ft 289 kts 161°
2026-04-20 19:17 -15.65190 -70.01048 19234 ft 289 kts 161°
2026-04-20 19:17 -15.67070 -70.00365 18799 ft 289 kts 160°
2026-04-20 19:18 -15.68981 -69.99683 18354 ft 289 kts 161°
2026-04-20 19:18 -15.70723 -69.98676 17935 ft 286 kts 131°
2026-04-20 19:18 -15.71672 -69.96920 17578 ft 282 kts 101°
2026-04-20 19:18 -15.71658 -69.94920 17213 ft 279 kts 73°
2026-04-20 19:19 -15.70789 -69.93149 16815 ft 277 kts 45°
2026-04-20 19:19 -15.69216 -69.92007 16433 ft 275 kts 23°
2026-04-20 19:19 -15.67377 -69.91525 16021 ft 274 kts
2026-04-20 19:19 -15.65482 -69.91314 15557 ft 275 kts
2026-04-20 19:20 -15.63560 -69.91161 15082 ft 277 kts 360°
2026-04-20 19:20 -15.61642 -69.91318 14623 ft 278 kts 351°
2026-04-20 19:20 -15.59735 -69.91722 14276 ft 272 kts 348°
2026-04-20 19:20 -15.57983 -69.92224 14215 ft 256 kts 339°
2026-04-20 19:21 -15.56468 -69.93100 14190 ft 239 kts 323°
2026-04-20 19:21 -15.55204 -69.94133 14189 ft 217 kts 317°
2026-04-20 19:21 -15.54380 -69.95217 14198 ft 195 kts 291°
2026-04-20 19:21 -15.53998 -69.96511 14506 ft 183 kts 282°
2026-04-20 19:22 -15.53609 -69.97778 14702 ft 187 kts 288°
2026-04-20 19:22 -15.53152 -69.99049 14838 ft 193 kts 289°
2026-04-20 19:22 -15.52651 -70.00351 14984 ft 197 kts 291°
2026-04-20 19:22 -15.52110 -70.01678 14984 ft 202 kts 290°
2026-04-20 19:23 -15.51588 -70.03040 14898 ft 201 kts 290°
2026-04-20 19:23 -15.51084 -70.04394 14609 ft 201 kts 288°
2026-04-20 19:23 -15.50581 -70.05731 14267 ft 199 kts 292°
2026-04-20 19:23 -15.50058 -70.07059 13859 ft 198 kts 290°
2026-04-20 19:24 -15.49554 -70.08381 13540 ft 195 kts 290°
2026-04-20 19:24 -15.49060 -70.09668 13161 ft 196 kts 291°
2026-04-20 19:24 -15.48564 -70.10946 12947 ft 191 kts 290°
2026-04-20 19:24 -15.48079 -70.12212 12852 ft 194 kts 291°
2026-04-20 19:25 -15.47581 -70.13472 12696 ft 193 kts 290°
2026-04-20 19:25 -15.47107 -70.14735 12594 ft 165 kts 292°
2026-04-20 19:25 -15.46814 -70.15455 12592 ft 54 kts 296°
2026-04-20 19:25 -15.46757 -70.15601 12592 ft 10 kts 271°
2026-04-20 19:26 -15.46777 -70.15641 12592 ft 0 kts 217°
2026-04-20 19:26 -15.46789 -70.15649 12592 ft 7 kts 210°
2026-04-20 19:26 -15.46866 -70.15678 12592 ft 11 kts 199°
2026-04-20 19:27 -15.46930 -70.15693 12592 ft 8 kts 171°
2026-04-20 19:27 -15.46947 -70.15689 12592 ft 0 kts 166°